[[{"header":{"parameterUnit":"m.s-1","parameterCategory":1,"la1":30.2991,"la2":30.254,"lo1":-89.0895,"lo2":-89.0444,"dy":0.0017,"dx":0.0017,"nx":28,"ny":28,"refTime":"2024-02-26T09:00:00:Z","depth":0,"parameterNumber":2,"parameterNumberName":"U-component_of_WINDS"},"data":[0,0,0,0,0,0,0,0,0,0,0,0,0,0,0,0,0,0,0,0,0,0,0,0,0,0,0,0,0,0,0,0,0,0,0,0,0,0,0,0,0,0,0,0,0,0,0,0,0,0,0,0,0,0,0,0,0,0,-0.7831,-0.7832,0,-0.7949,-0.795,-0.7952,-0.8033,-0.8034,-0.8034,-0.8035,-0.8151,-0.8154,-0.8156,0,0,0,0,0,0,0,0,0,0,0,0,0,-0.7673,-0.7675,-0.7831,-0.7833,-0.7834,-0.7949,-0.795,-0.7952,-0.8033,-0.8034,-0.8035,-0.8035,-0.815,-0.8153,-0.8156,0,0,0,0,0,0,0,0,0,0,0,0,0,-0.7761,-0.7676,-0.7831,-0.7888,-0.7895,-0.7948,-0.795,-0.7952,-0.8033,-0.8034,-0.8035,-0.8036,-0.8149,-0.8153,-0.8157,-0.8161,0,0,-0.8168,-0.817,0,0,0,0,0,0,0,0,-0.7756,-0.7766,-0.7878,-0.7885,-0.7892,-0.7977,-0.7937,-0.8022,-0.8033,-0.798,-0.8035,-0.8036,-0.8092,-0.8101,-0.8121,-0.8167,-0.8172,-0.8169,-0.8171,-0.8173,-0.8174,0,0,0,0,0,0,0,-0.7749,-0.7762,-0.7878,-0.788,-0.7888,-0.7907,-0.7921,-0.7954,-0.8029,-0.7985,-0.7991,-0.8004,-0.8096,-0.8117,-0.8124,-0.8173,-0.8169,-0.8172,-0.8174,-0.8176,-0.8229,-0.8228,0,0,0,0,0,0,-0.7735,-0.7756,-0.7874,-0.7881,-0.7825,-0.7909,-0.7924,-0.7949,-0.8029,-0.8043,-0.8003,-0.8008,-0.811,-0.812,-0.8128,-0.8139,-0.8173,-0.8176,-0.8178,-0.8229,-0.8228,-0.8227,0,0,0,0,0,0,-0.7731,-0.7745,-0.7869,-0.7821,-0.7838,-0.7911,-0.7938,-0.7951,-0.7972,-0.8043,-0.8057,-0.8011,-0.8111,-0.8123,-0.8153,-0.8144,-0.8178,-0.8181,-0.823,-0.8229,-0.8228,-0.8159,0,0,0,0,0,0,-0.7726,-0.7743,-0.7746,-0.782,-0.784,-0.7892,-0.7937,-0.7952,-0.7979,-0.7985,-0.8054,-0.8066,-0.8113,-0.8147,-0.8157,-0.815,-0.8184,-0.8232,-0.823,-0.8228,-0.8163,-0.8156,-0.815,0,0,0,0,0,-0.772,-0.7721,-0.7746,-0.776,-0.7846,-0.7892,-0.7903,-0.7958,-0.7977,-0.7981,-0.8027,-0.8064,-0.8144,-0.8149,-0.8161,-0.8155,-0.8232,-0.823,-0.8228,-0.8165,-0.8157,-0.815,0,0,0,0,0,0,-0.7643,-0.7732,-0.776,-0.7785,-0.7831,-0.7905,-0.7911,-0.7947,-0.7987,-0.7991,-0.8056,-0.8071,-0.8094,-0.8128,-0.8132,-0.8163,-0.8192,-0.8193,-0.814,-0.8133,-0.8127,-0.8118,-0.8187,0,0,0,0,0,-0.7629,-0.766,-0.7736,-0.775,-0.7772,-0.7837,-0.7859,-0.7898,-0.7947,-0.7966,-0.8014,-0.8059,-0.8094,-0.8116,-0.8152,-0.8168,-0.8184,-0.817,-0.8163,-0.8158,-0.8157,-0.8168,-0.8162,-0.8221,-0.8221,-0.8221,0,0,-0.76,-0.7653,-0.7668,-0.7736,-0.7776,-0.7805,-0.7853,-0.7882,-0.7904,-0.797,-0.8001,-0.8038,-0.8092,-0.8115,-0.8127,-0.8144,-0.8144,-0.8155,-0.8151,-0.8153,-0.8165,-0.8159,-0.8154,-0.822,-0.822,-0.822,0,0,-0.7563,-0.7606,-0.7623,-0.7662,-0.7721,-0.7765,-0.7769,-0.7839,-0.7866,-0.7899,-0.7949,-0.7975,-0.8034,-0.8071,-0.8097,-0.8073,-0.8109,-0.8083,-0.805,-0.8059,-0.8054,-0.8051,-0.8041,-0.8037,-0.8082,-0.8082,-0.8082,0,-0.7519,-0.7566,-0.7627,-0.7653,-0.7681,-0.7744,-0.776,-0.7795,-0.7862,-0.788,-0.7898,-0.7973,-0.8014,-0.8046,-0.804,-0.806,-0.8065,-0.8075,-0.8051,-0.8047,-0.8045,-0.8036,-0.8033,-0.8079,-0.8079,-0.8079,-0.808,0,-0.7509,-0.7541,-0.7547,-0.7613,-0.7642,-0.7663,-0.7725,-0.7747,-0.7783,-0.7824,-0.7856,-0.7907,-0.7955,-0.7966,-0.8,-0.8002,-0.8011,-0.8039,-0.8069,-0.8034,-0.8028,-0.8025,-0.8074,-0.8075,-0.8076,-0.8077,0,0,-0.7426,-0.7524,-0.7525,-0.7556,-0.7626,-0.7651,-0.7675,-0.7723,-0.774,-0.7785,-0.7805,-0.7854,-0.7881,-0.791,-0.795,-0.7958,-0.7935,-0.7985,-0.7988,-0.7973,-0.7939,-0.7917,-0.7913,-0.796,-0.7959,-0.7959,-0.7935,0,-0.7398,-0.7445,-0.75,-0.7528,-0.7558,-0.7617,-0.7638,-0.7682,-0.7722,-0.7752,-0.7795,-0.7828,-0.7861,-0.7879,-0.789,-0.7936,-0.7929,-0.7938,-0.7978,-0.7979,-0.7962,-0.791,-0.7886,-0.7861,-0.7932,-0.7932,-0.7932,0,-0.7372,-0.7415,-0.7446,-0.7514,-0.7528,-0.7546,-0.7594,-0.7622,-0.7674,-0.7702,-0.7735,-0.7778,-0.7804,-0.7832,-0.7869,-0.7874,-0.7893,-0.7918,-0.7918,-0.7923,-0.7952,-0.7912,-0.7854,-0.785,-0.7928,-0.7929,-0.7929,0,-0.7307,-0.7372,-0.7399,-0.7423,-0.7503,-0.7514,-0.7547,-0.76,-0.7625,-0.7667,-0.7684,-0.7727,-0.7751,-0.7783,-0.7836,-0.7851,-0.7867,-0.7899,-0.789,-0.7888,-0.789,-0.7889,-0.7833,-0.7903,-0.7903,-0.7904,-0.7904,0,-0.727,-0.7286,-0.7371,-0.7387,-0.7407,-0.7469,-0.7487,-0.7526,-0.7572,-0.7596,-0.765,-0.7671,-0.774,-0.7769,-0.7811,-0.7834,-0.7845,-0.7867,-0.7878,-0.7862,-0.7859,-0.7875,-0.7877,-0.7903,-0.7903,-0.7903,-0.7903,0,-0.72,-0.7258,-0.7291,-0.7364,-0.7383,-0.7394,-0.7456,-0.7473,-0.7516,-0.7546,-0.7556,-0.7623,-0.7659,-0.7716,-0.7769,-0.7797,-0.7813,-0.7832,-0.7796,-0.7803,-0.779,-0.779,-0.7742,-0.7738,-0.7811,-0.781,-0.781,0,-0.7173,-0.7187,-0.7261,-0.7282,-0.7314,-0.7346,-0.7373,-0.7434,-0.7459,-0.7519,-0.7529,-0.757,-0.7607,-0.7662,-0.7715,-0.7755,-0.7774,-0.7755,-0.7781,-0.7764,-0.7773,-0.7771,-0.7772,-0.7748,-0.7747,-0.7746,-0.7745,0,-0.7117,-0.7145,-0.7181,-0.7227,-0.7257,-0.7296,-0.7338,-0.7351,-0.7422,-0.7447,-0.7486,-0.7514,-0.7569,-0.7609,-0.7657,-0.769,-0.7729,-0.7737,-0.7737,-0.772,-0.7699,-0.7709,-0.7779,-0.7737,-0.7738,-0.7739,-0.7739,-0.774,-0.7067,-0.7082,-0.7137,-0.7175,-0.7213,-0.7251,-0.7271,-0.7316,-0.735,-0.7401,-0.7435,-0.7471,-0.7522,-0.7591,-0.7623,-0.7651,-0.7668,-0.7668,-0.7668,-0.7667,-0.766,-0.7695,-0.766,-0.7661,-0.7661,-0.7661,-0.7662,0,-0.7013,-0.7052,-0.7086,-0.7143,-0.7173,-0.7209,-0.7256,-0.7279,-0.7311,-0.7355,-0.739,-0.7435,-0.7474,-0.7529,-0.7572,-0.7584,-0.7603,-0.7593,-0.7592,-0.7599,-0.7643,-0.7639,-0.7577,-0.7577,-0.7577,-0.7577,-0.7578,-0.7578,-0.6989,-0.7016,-0.705,-0.7096,-0.7134,-0.7171,-0.7196,-0.723,-0.7266,-0.7314,-0.7347,-0.7383,-0.7432,-0.7479,-0.7516,-0.7531,-0.7544,-0.7528,-0.7549,-0.7589,-0.7596,-0.7604,-0.76,-0.7531,-0.7531,-0.7502,-0.7502,-0.7502]},{"header":{"parameterUnit":"m.s-1","parameterCategory":1,"la1":30.2991,"la2":30.254,"lo1":-89.0895,"lo2":-89.0444,"dy":0.0017,"dx":0.0017,"nx":28,"ny":28,"refTime":"2024-02-26T09:00:00:Z","depth":0,"parameterNumber":3,"parameterNumberName":"V-component_of_WINDS"},"data":[0,0,0,0,0,0,0,0,0,0,0,0,0,0,0,0,0,0,0,0,0,0,0,0,0,0,0,0,0,0,0,0,0,0,0,0,0,0,0,0,0,0,0,0,0,0,0,0,0,0,0,0,0,0,0,0,0,0,5.9134,5.9135,0,5.928,5.9282,5.9283,5.9295,5.9294,5.9292,5.9291,5.9434,5.9439,5.9444,0,0,0,0,0,0,0,0,0,0,0,0,0,5.8859,5.8864,5.9133,5.9135,5.9137,5.928,5.9282,5.9284,5.9296,5.9294,5.9292,5.929,5.9432,5.9438,5.9444,0,0,0,0,0,0,0,0,0,0,0,0,0,5.8989,5.8866,5.9133,5.9161,5.9164,5.9279,5.9282,5.9284,5.9296,5.9294,5.9291,5.9289,5.943,5.9438,5.9445,5.9541,0,0,5.9469,5.9473,0,0,0,0,0,0,0,0,5.8982,5.8999,5.9155,5.9159,5.9163,5.9267,5.9238,5.937,5.9297,5.9246,5.9291,5.9288,5.938,5.9392,5.9424,5.9548,5.9554,5.947,5.9475,5.9478,5.9481,0,0,0,0,0,0,0,5.8973,5.8993,5.9191,5.9157,5.9162,5.9164,5.918,5.9263,5.9324,5.925,5.9251,5.9269,5.9382,5.9416,5.9427,5.9556,5.947,5.9477,5.9482,5.9485,5.9768,5.9771,0,0,0,0,0,0,5.8959,5.8985,5.9187,5.9196,5.9065,5.9171,5.9188,5.9236,5.9323,5.9334,5.9271,5.9269,5.9404,5.9418,5.9432,5.9553,5.9478,5.9486,5.949,5.9766,5.9769,5.9772,0,0,0,0,0,0,5.8953,5.8977,5.9181,5.9091,5.9117,5.9178,5.9231,5.924,5.9275,5.9339,5.9349,5.9296,5.9403,5.9421,5.9515,5.9558,5.9489,5.9496,5.9762,5.9767,5.9771,5.9793,0,0,0,0,0,0,5.8945,5.8975,5.9013,5.9092,5.9122,5.9263,5.9234,5.9245,5.929,5.9289,5.9365,5.9375,5.9402,5.9503,5.9523,5.9568,5.9503,5.9759,5.9764,5.9769,5.9789,5.9798,5.9805,0,0,0,0,0,5.8936,5.9011,5.9015,5.9039,5.9171,5.9265,5.9282,5.9314,5.9293,5.9331,5.9373,5.9373,5.955,5.9513,5.9535,5.9583,5.9756,5.9763,5.9769,5.9785,5.9796,5.9805,0,0,0,0,0,0,5.8932,5.9022,5.9027,5.9131,5.9191,5.9267,5.9316,5.9324,5.9389,5.9385,5.9419,5.9437,5.953,5.9565,5.9522,5.9681,5.9651,5.9662,5.9655,5.9666,5.9674,5.9664,5.9509,0,0,0,0,0,5.8944,5.9015,5.9089,5.9173,5.9203,5.9255,5.9297,5.9317,5.9379,5.9404,5.9451,5.951,5.958,5.9624,5.9691,5.9793,5.9811,5.9837,5.9845,5.9852,5.9861,5.9921,5.9934,5.9793,5.9793,5.9793,0,0,5.8969,5.9026,5.9068,5.9174,5.9223,5.9295,5.9276,5.9351,5.9405,5.9414,5.9508,5.9545,5.9612,5.9712,5.9758,5.9744,5.9904,5.986,5.9864,5.9871,5.9928,5.9942,5.9954,5.9797,5.9796,5.9796,0,0,5.9051,5.9101,5.9178,5.9229,5.9304,5.9338,5.9357,5.9433,5.9459,5.9554,5.9563,5.9626,5.9744,5.9793,5.9833,5.9937,5.994,5.9957,6.0,6.0057,6.0068,6.0078,6.0118,6.0131,5.9966,5.9966,5.9966,0,5.9071,5.9182,5.9216,5.9294,5.9341,5.9355,5.9434,5.948,5.9572,5.9604,5.9587,5.9738,5.9784,5.9897,5.9923,5.9954,5.9977,5.9949,6.0064,6.0075,6.0085,6.0123,6.0137,5.9968,5.9968,5.9967,5.9967,0,5.9204,5.9281,5.9334,5.9427,5.9479,5.9556,5.9602,5.9651,5.9666,5.9702,5.9799,5.9855,5.9936,5.9963,5.9977,6.0078,6.0068,6.0057,6.0028,6.01,6.0136,6.015,5.997,5.997,5.9969,5.9969,0,0,5.9288,5.9402,5.9421,5.9465,5.955,5.9609,5.9687,5.9769,5.9811,5.9873,5.994,6.0041,6.0033,6.0079,6.0099,6.0149,6.0231,6.0133,6.0135,6.0151,6.0348,6.0358,6.0374,6.0233,6.0235,6.0238,6.0344,0,5.9381,5.9524,5.9559,5.9681,5.9753,5.9769,5.9837,5.9896,5.9932,5.9997,6.0035,6.0107,6.009,6.0118,6.0168,6.021,6.0271,6.0202,6.0295,6.0298,6.0281,6.0393,6.0402,6.0499,6.0358,6.036,6.0362,0,5.9509,5.958,5.971,5.979,5.9821,5.9882,5.9961,6.0023,6.009,6.0113,6.0166,6.0181,6.0263,6.0228,6.0341,6.0294,6.0333,6.0359,6.0364,6.0376,6.0336,6.0409,6.0531,6.0546,6.0384,6.0382,6.0381,0,5.9561,5.9688,5.9783,5.982,5.9913,5.9957,5.9997,6.0063,6.011,6.0178,6.021,6.0285,6.0326,6.0384,6.0419,6.039,6.053,6.0497,6.0551,6.0551,6.0581,6.0579,6.0714,6.0603,6.0603,6.0602,6.0602,0,5.9664,5.9743,5.9809,5.9867,5.9957,5.9996,6.0083,6.0123,6.0182,6.0248,6.0264,6.0325,6.0367,6.0434,6.0461,6.0553,6.057,6.059,6.0597,6.0591,6.0589,6.0619,6.0614,6.0606,6.0605,6.0605,6.0604,0,5.9737,5.9784,5.989,5.9971,5.9993,6.0056,6.0125,6.0182,6.0219,6.0303,6.0324,6.0381,6.0461,6.0502,6.06,6.0618,6.0722,6.0723,6.07,6.0704,6.0756,6.0752,6.0917,6.0941,6.0812,6.0813,6.0814,0,5.9801,5.9863,5.9953,6.0,6.0043,6.0117,6.0168,6.0207,6.0259,6.0342,6.0389,6.0471,6.0539,6.0665,6.0714,6.079,6.0794,6.0847,6.0806,6.0798,6.0799,6.0796,6.0803,6.0855,6.0856,6.0857,6.0858,0,5.9909,5.993,6.0003,6.0086,6.0146,6.0212,6.0276,6.0313,6.0363,6.042,6.0504,6.0557,6.0659,6.074,6.082,6.086,6.0868,6.087,6.0887,6.0882,6.0868,6.088,6.0723,6.0867,6.0866,6.0865,6.0865,6.0864,5.9982,6.0039,6.0113,6.0194,6.0248,6.0309,6.0368,6.0413,6.0485,6.0574,6.0592,6.0682,6.0749,6.0858,6.09,6.097,6.0958,6.0982,6.0989,6.0995,6.0999,6.0855,6.0984,6.0984,6.0983,6.0983,6.0983,0,6.0094,6.0143,6.0217,6.031,6.0374,6.0378,6.045,6.0503,6.0583,6.0646,6.0714,6.0811,6.089,6.0946,6.1027,6.1072,6.1078,6.1092,6.109,6.11,6.1003,6.0982,6.1086,6.1086,6.1086,6.1086,6.1086,6.1086,6.016,6.0259,6.0289,6.0414,6.0462,6.0553,6.0594,6.065,6.0701,6.0811,6.0878,6.0915,6.0976,6.1061,6.1134,6.1148,6.1178,6.1193,6.1208,6.1117,6.1106,6.1096,6.1076,6.1199,6.1199,6.1299,6.13,6.1301]}]]